Time,TemperatureF,DewpointF,PressureIn,WindDirection,WindDirectionDegrees,WindSpeedMPH,WindSpeedGustMPH,Humidity,HourlyPrecipIn,Conditions,Clouds,dailyrainin,SoftwareType,DateUTC
2013-03-22 00:03:00,27.0,9.0,-100.00,SW,230,3.0,7.0,47,0.00,,,-99.99,,2013-03-22 04:03:00,
2013-03-22 00:12:00,26.0,9.0,-100.00,SSW,200,2.0,4.0,48,0.00,,,-99.99,,2013-03-22 04:12:00,
2013-03-22 00:23:00,26.0,9.0,-100.00,SW,225,2.0,4.0,50,0.00,,,-99.99,,2013-03-22 04:23:00,
2013-03-22 00:32:00,26.0,9.0,-100.00,SW,225,2.0,4.0,50,0.00,,,-99.99,,2013-03-22 04:32:00,
2013-03-22 00:43:00,26.0,10.0,-100.00,SW,230,2.0,7.0,51,0.00,,,-99.99,,2013-03-22 04:43:00,
2013-03-22 00:52:00,25.0,9.0,-100.00,SW,230,2.0,7.0,51,0.00,,,-99.99,,2013-03-22 04:52:00,
2013-03-22 01:02:00,25.0,9.0,-100.00,SW,230,2.0,7.0,51,0.00,,,-99.99,,2013-03-22 05:02:00,
2013-03-22 01:12:00,25.0,10.0,-100.00,WSW,255,3.0,7.0,53,0.00,,,-99.99,,2013-03-22 05:12:00,
2013-03-22 01:22:00,25.0,11.0,-100.00,West,270,4.0,9.0,54,0.00,,,-99.99,,2013-03-22 05:22:00,
2013-03-22 01:32:00,25.0,11.0,-100.00,West,270,4.0,9.0,54,0.00,,,-99.99,,2013-03-22 05:32:00,
2013-03-22 01:42:00,26.0,11.0,-100.00,West,265,4.0,10.0,55,0.00,,,-99.99,,2013-03-22 05:42:00,
2013-03-22 01:52:00,26.0,12.0,-100.00,WNW,300,4.0,11.0,55,0.00,,,-99.99,,2013-03-22 05:52:00,
2013-03-22 02:02:00,26.0,12.0,-100.00,WNW,300,4.0,11.0,55,0.00,,,-99.99,,2013-03-22 06:02:00,
2013-03-22 02:13:00,26.0,12.0,-100.00,West,275,4.0,9.0,56,0.00,,,-99.99,,2013-03-22 06:13:00,
2013-03-22 02:22:00,26.0,12.0,-100.00,West,270,6.0,9.0,56,0.00,,,-99.99,,2013-03-22 06:22:00,
2013-03-22 02:32:00,26.0,12.0,-100.00,West,270,6.0,9.0,56,0.00,,,-99.99,,2013-03-22 06:32:00,
2013-03-22 02:42:00,26.0,12.0,-100.00,West,260,2.0,7.0,56,0.00,,,-99.99,,2013-03-22 06:42:00,
2013-03-22 02:52:00,26.0,12.0,-100.00,West,260,2.0,7.0,56,0.00,,,-99.99,,2013-03-22 06:52:00,
2013-03-22 03:03:00,26.0,12.0,-100.00,WNW,285,3.0,8.0,57,0.00,,,-99.99,,2013-03-22 07:03:00,
2013-03-22 03:12:00,26.0,13.0,-100.00,West,265,4.0,7.0,58,0.00,,,-99.99,,2013-03-22 07:12:00,
2013-03-22 03:22:00,26.0,13.0,-100.00,West,270,3.0,16.0,58,0.00,,,-99.99,,2013-03-22 07:22:00,
2013-03-22 03:32:00,26.0,13.0,-100.00,West,270,3.0,16.0,58,0.00,,,-99.99,,2013-03-22 07:32:00,
2013-03-22 03:42:00,27.0,14.0,-100.00,West,275,6.0,12.0,58,0.00,,,-99.99,,2013-03-22 07:42:00,
2013-03-22 03:52:00,27.0,14.0,-100.00,West,275,6.0,12.0,58,0.00,,,-99.99,,2013-03-22 07:52:00,
2013-03-22 04:03:00,27.0,14.0,-100.00,WSW,240,4.0,14.0,58,0.00,,,-99.99,,2013-03-22 08:03:00,
2013-03-22 04:13:00,27.0,14.0,-100.00,WSW,250,4.0,11.0,58,0.00,,,-99.99,,2013-03-22 08:13:00,
2013-03-22 04:22:00,27.0,14.0,-100.00,WSW,250,4.0,11.0,58,0.00,,,-99.99,,2013-03-22 08:22:00,
2013-03-22 04:32:00,27.0,14.0,-100.00,West,270,6.0,11.0,59,0.00,,,-99.99,,2013-03-22 08:32:00,
2013-03-22 04:42:00,27.0,15.0,-100.00,West,270,6.0,16.0,59,0.00,,,-99.99,,2013-03-22 08:42:00,
2013-03-22 04:52:00,27.0,15.0,-100.00,West,260,7.0,18.0,59,0.00,,,-99.99,,2013-03-22 08:52:00,
2013-03-22 05:02:00,27.0,15.0,-100.00,West,260,7.0,18.0,59,0.00,,,-99.99,,2013-03-22 09:02:00,
2013-03-22 05:12:00,27.0,15.0,-100.00,West,275,8.0,16.0,59,0.00,,,-99.99,,2013-03-22 09:12:00,
2013-03-22 05:22:00,27.0,15.0,-100.00,West,280,6.0,14.0,59,0.00,,,-99.99,,2013-03-22 09:22:00,
2013-03-22 05:32:00,27.0,15.0,-100.00,West,280,6.0,14.0,59,0.00,,,-99.99,,2013-03-22 09:32:00,
2013-03-22 05:42:00,28.0,15.0,-100.00,WNW,295,9.0,16.0,59,0.00,,,-99.99,,2013-03-22 09:42:00,
2013-03-22 05:53:00,28.0,15.0,-100.00,WNW,295,9.0,16.0,59,0.00,,,-99.99,,2013-03-22 09:53:00,
2013-03-22 06:04:00,28.0,16.0,-100.00,West,280,9.0,17.0,59,0.00,,,-99.99,,2013-03-22 10:04:00,
2013-03-22 06:12:00,29.0,15.0,-100.00,WNW,300,7.0,18.0,58,0.00,,,-99.99,,2013-03-22 10:12:00,
2013-03-22 06:22:00,29.0,15.0,-100.00,WNW,300,7.0,18.0,58,0.00,,,-99.99,,2013-03-22 10:22:00,
2013-03-22 06:33:00,29.0,15.0,-100.00,WNW,285,7.0,15.0,58,0.00,,,-99.99,,2013-03-22 10:33:00,
2013-03-22 06:42:00,29.0,15.0,-100.00,West,265,6.0,16.0,58,0.00,,,-99.99,,2013-03-22 10:42:00,
2013-03-22 06:52:00,29.0,15.0,-100.00,West,265,6.0,16.0,58,0.00,,,-99.99,,2013-03-22 10:52:00,
2013-03-22 07:03:00,29.0,15.0,-100.00,West,280,7.0,15.0,57,0.00,,,-99.99,,2013-03-22 11:03:00,
2013-03-22 07:12:00,29.0,15.0,-100.00,West,260,7.0,14.0,57,0.00,,,-99.99,,2013-03-22 11:12:00,
2013-03-22 07:22:00,29.0,15.0,-100.00,West,260,7.0,14.0,57,0.00,,,-99.99,,2013-03-22 11:22:00,
2013-03-22 07:33:00,28.0,15.0,-100.00,West,270,5.0,12.0,58,0.00,,,-99.99,,2013-03-22 11:33:00,
2013-03-22 07:42:00,28.0,15.0,-100.00,WNW,300,8.0,16.0,58,0.00,,,-99.99,,2013-03-22 11:42:00,
2013-03-22 07:52:00,28.0,15.0,-100.00,WNW,300,8.0,16.0,58,0.00,,,-99.99,,2013-03-22 11:52:00,
2013-03-22 08:02:00,29.0,16.0,-100.00,NW,305,8.0,16.0,58,0.00,,,-99.99,,2013-03-22 12:02:00,
2013-03-22 08:12:00,29.0,16.0,-100.00,WNW,300,9.0,21.0,58,0.00,,,-99.99,,2013-03-22 12:12:00,
2013-03-22 08:22:00,29.0,16.0,-100.00,WNW,300,9.0,21.0,58,0.00,,,-99.99,,2013-03-22 12:22:00,
2013-03-22 08:32:00,30.0,17.0,-100.00,WNW,295,11.0,20.0,58,0.00,,,-99.99,,2013-03-22 12:32:00,
2013-03-22 08:42:00,30.0,17.0,-100.00,WNW,290,12.0,24.0,57,0.00,,,-99.99,,2013-03-22 12:42:00,
2013-03-22 08:52:00,30.0,17.0,-100.00,WNW,290,12.0,24.0,57,0.00,,,-99.99,,2013-03-22 12:52:00,
2013-03-22 09:02:00,31.0,17.0,-100.00,WNW,300,6.0,18.0,56,0.00,,,-99.99,,2013-03-22 13:02:00,
2013-03-22 09:12:00,31.0,17.0,-100.00,WNW,285,6.0,17.0,55,0.00,,,-99.99,,2013-03-22 13:12:00,
2013-03-22 09:22:00,31.0,17.0,-100.00,WNW,285,6.0,17.0,55,0.00,,,-99.99,,2013-03-22 13:22:00,
2013-03-22 09:32:00,31.0,17.0,-100.00,WNW,285,11.0,24.0,56,0.00,,,-99.99,,2013-03-22 13:32:00,
2013-03-22 09:42:00,31.0,17.0,-100.00,WNW,300,9.0,19.0,55,0.00,,,-99.99,,2013-03-22 13:42:00,
2013-03-22 09:52:00,31.0,16.0,-100.00,WNW,285,7.0,17.0,54,0.00,,,-99.99,,2013-03-22 13:52:00,
2013-03-22 10:03:00,31.0,16.0,-100.00,WNW,285,7.0,17.0,54,0.00,,,-99.99,,2013-03-22 14:03:00,
2013-03-22 10:12:00,31.0,16.0,-100.00,West,275,7.0,16.0,53,0.00,,,-99.99,,2013-03-22 14:12:00,
2013-03-22 10:22:00,31.0,16.0,-100.00,West,275,7.0,16.0,53,0.00,,,-99.99,,2013-03-22 14:22:00,
2013-03-22 10:32:00,31.0,16.0,-100.00,WNW,290,7.0,19.0,53,0.00,,,-99.99,,2013-03-22 14:32:00,
2013-03-22 10:42:00,32.0,16.0,-100.00,WNW,300,6.0,20.0,50,0.00,,,-99.99,,2013-03-22 14:42:00,
2013-03-22 10:52:00,32.0,16.0,-100.00,WNW,300,6.0,20.0,50,0.00,,,-99.99,,2013-03-22 14:52:00,
2013-03-22 11:03:00,32.0,15.0,-100.00,WNW,300,9.0,21.0,49,0.00,,,-99.99,,2013-03-22 15:03:00,
2013-03-22 11:12:00,33.0,15.0,-100.00,West,280,7.0,19.0,48,0.00,,,-99.99,,2013-03-22 15:12:00,
2013-03-22 11:22:00,33.0,15.0,-100.00,West,280,7.0,19.0,48,0.00,,,-99.99,,2013-03-22 15:22:00,
2013-03-22 11:33:00,33.0,15.0,-100.00,NW,310,7.0,14.0,48,0.00,,,-99.99,,2013-03-22 15:33:00,
2013-03-22 11:42:00,34.0,16.0,-100.00,West,280,4.0,12.0,47,0.00,,,-99.99,,2013-03-22 15:42:00,
2013-03-22 11:52:00,37.0,17.0,-100.00,NW,310,7.0,17.0,45,0.00,,,-99.99,,2013-03-22 15:52:00,
2013-03-22 12:03:00,37.0,17.0,-100.00,NW,310,7.0,17.0,45,0.00,,,-99.99,,2013-03-22 16:03:00,
2013-03-22 12:13:00,37.0,17.0,-100.00,WNW,285,7.0,14.0,44,0.00,,,-99.99,,2013-03-22 16:13:00,
2013-03-22 12:23:00,37.0,17.0,-100.00,WNW,285,7.0,14.0,44,0.00,,,-99.99,,2013-03-22 16:23:00,
2013-03-22 12:32:00,40.0,18.0,-100.00,WNW,300,9.0,18.0,42,0.00,,,-99.99,,2013-03-22 16:32:00,
2013-03-22 12:42:00,39.0,17.0,-100.00,NW,315,14.0,22.0,41,0.00,,,-99.99,,2013-03-22 16:42:00,
2013-03-22 12:52:00,39.0,17.0,-100.00,NW,315,14.0,22.0,41,0.00,,,-99.99,,2013-03-22 16:52:00,
2013-03-22 13:03:00,40.0,18.0,-100.00,WNW,290,7.0,20.0,40,0.00,,,-99.99,,2013-03-22 17:03:00,
2013-03-22 13:12:00,39.0,17.0,-100.00,West,275,6.0,21.0,41,0.00,,,-99.99,,2013-03-22 17:12:00,
2013-03-22 13:23:00,39.0,17.0,-100.00,West,275,6.0,21.0,41,0.00,,,-99.99,,2013-03-22 17:23:00,
2013-03-22 13:32:00,41.0,18.0,-100.00,WNW,295,11.0,17.0,40,0.00,,,-99.99,,2013-03-22 17:32:00,
2013-03-22 13:42:00,42.0,18.0,-100.00,WNW,295,11.0,22.0,39,0.00,,,-99.99,,2013-03-22 17:42:00,
2013-03-22 13:52:00,42.0,18.0,-100.00,WNW,295,11.0,22.0,39,0.00,,,-99.99,,2013-03-22 17:52:00,
2013-03-22 14:02:00,41.0,18.0,-100.00,WNW,300,13.0,24.0,39,0.00,,,-99.99,,2013-03-22 18:02:00,
2013-03-22 14:12:00,41.0,18.0,-100.00,WNW,295,13.0,26.0,38,0.00,,,-99.99,,2013-03-22 18:12:00,
2013-03-22 14:22:00,41.0,18.0,-100.00,WNW,295,13.0,26.0,38,0.00,,,-99.99,,2013-03-22 18:22:00,
2013-03-22 14:33:00,42.0,18.0,-100.00,West,275,9.0,24.0,38,0.00,,,-99.99,,2013-03-22 18:33:00,
2013-03-22 14:42:00,42.0,18.0,-100.00,WNW,300,10.0,24.0,38,0.00,,,-99.99,,2013-03-22 18:42:00,
2013-03-22 14:52:00,42.0,18.0,-100.00,WNW,300,10.0,24.0,38,0.00,,,-99.99,,2013-03-22 18:52:00,
2013-03-22 15:02:00,41.0,18.0,-100.00,NW,315,14.0,21.0,38,0.00,,,-99.99,,2013-03-22 19:02:00,
2013-03-22 15:12:00,41.0,17.0,-100.00,NW,310,9.0,21.0,38,0.00,,,-99.99,,2013-03-22 19:12:00,
2013-03-22 15:22:00,41.0,17.0,-100.00,NW,310,9.0,21.0,38,0.00,,,-99.99,,2013-03-22 19:22:00,
2013-03-22 15:32:00,42.0,18.0,-100.00,WNW,295,10.0,22.0,37,0.00,,,-99.99,,2013-03-22 19:32:00,
2013-03-22 15:42:00,42.0,18.0,-100.00,WNW,295,11.0,26.0,37,0.00,,,-99.99,,2013-03-22 19:42:00,
2013-03-22 15:52:00,42.0,18.0,-100.00,WNW,295,11.0,26.0,37,0.00,,,-99.99,,2013-03-22 19:52:00,
2013-03-22 16:02:00,44.0,18.0,-100.00,WNW,300,7.0,19.0,36,0.00,,,-99.99,,2013-03-22 20:02:00,
2013-03-22 16:12:00,43.0,18.0,-100.00,WNW,295,10.0,22.0,36,0.00,,,-99.99,,2013-03-22 20:12:00,
2013-03-22 16:22:00,43.0,18.0,-100.00,WNW,295,10.0,22.0,36,0.00,,,-99.99,,2013-03-22 20:22:00,
2013-03-22 16:32:00,43.0,18.0,-100.00,WNW,295,7.0,24.0,37,0.00,,,-99.99,,2013-03-22 20:32:00,
2013-03-22 16:43:00,41.0,17.0,-100.00,WNW,300,9.0,22.0,37,0.00,,,-99.99,,2013-03-22 20:43:00,
2013-03-22 16:52:00,41.0,17.0,-100.00,WNW,300,9.0,22.0,37,0.00,,,-99.99,,2013-03-22 20:52:00,
2013-03-22 17:03:00,40.0,17.0,-100.00,NW,320,9.0,21.0,38,0.00,,,-99.99,,2013-03-22 21:03:00,
2013-03-22 17:12:00,40.0,17.0,-100.00,NW,310,9.0,17.0,38,0.00,,,-99.99,,2013-03-22 21:12:00,
2013-03-22 17:22:00,40.0,17.0,-100.00,NW,310,9.0,17.0,38,0.00,,,-99.99,,2013-03-22 21:22:00,
2013-03-22 17:33:00,40.0,17.0,-100.00,NNW,330,9.0,20.0,38,0.00,,,-99.99,,2013-03-22 21:33:00,
2013-03-22 17:43:00,40.0,17.0,-100.00,NW,310,12.0,23.0,39,0.00,,,-99.99,,2013-03-22 21:43:00,
2013-03-22 17:53:00,40.0,16.0,-100.00,NW,310,11.0,22.0,38,0.00,,,-99.99,,2013-03-22 21:53:00,
2013-03-22 18:03:00,40.0,16.0,-100.00,NW,310,11.0,22.0,38,0.00,,,-99.99,,2013-03-22 22:03:00,
2013-03-22 18:12:00,39.0,16.0,-100.00,NW,325,8.0,16.0,39,0.00,,,-99.99,,2013-03-22 22:12:00,
2013-03-22 18:23:00,39.0,16.0,-100.00,NW,325,8.0,16.0,39,0.00,,,-99.99,,2013-03-22 22:23:00,
2013-03-22 18:32:00,39.0,17.0,-100.00,NW,320,9.0,15.0,40,0.00,,,-99.99,,2013-03-22 22:32:00,
2013-03-22 18:43:00,38.0,16.0,-100.00,NW,320,7.0,17.0,40,0.00,,,-99.99,,2013-03-22 22:43:00,
2013-03-22 18:52:00,38.0,16.0,-100.00,NW,310,6.0,14.0,41,0.00,,,-99.99,,2013-03-22 22:52:00,
2013-03-22 19:02:00,38.0,16.0,-100.00,NW,310,6.0,14.0,41,0.00,,,-99.99,,2013-03-22 23:02:00,
2013-03-22 19:12:00,37.0,16.0,-100.00,NW,315,6.0,14.0,42,0.00,,,-99.99,,2013-03-22 23:12:00,
2013-03-22 19:22:00,36.0,16.0,-100.00,North,350,5.0,10.0,43,0.00,,,-99.99,,2013-03-22 23:22:00,
2013-03-22 19:32:00,36.0,16.0,-100.00,North,350,5.0,10.0,43,0.00,,,-99.99,,2013-03-22 23:32:00,
2013-03-22 19:42:00,35.0,15.0,-100.00,North,0,6.0,12.0,44,0.00,,,-99.99,,2013-03-22 23:42:00,
2013-03-22 19:52:00,35.0,15.0,-100.00,North,0,6.0,12.0,44,0.00,,,-99.99,,2013-03-22 23:52:00,
2013-03-22 20:02:00,35.0,16.0,-100.00,North,0,6.0,9.0,46,0.00,,,-99.99,,2013-03-23 00:02:00,
2013-03-22 20:12:00,34.0,16.0,-100.00,North,0,4.0,9.0,47,0.00,,,-99.99,,2013-03-23 00:12:00,
2013-03-22 20:23:00,34.0,16.0,-100.00,North,0,4.0,9.0,47,0.00,,,-99.99,,2013-03-23 00:23:00,
2013-03-22 20:33:00,34.0,16.0,-100.00,North,10,6.0,7.0,47,0.00,,,-99.99,,2013-03-23 00:33:00,
2013-03-22 20:42:00,34.0,16.0,-100.00,NNE,15,6.0,9.0,47,0.00,,,-99.99,,2013-03-23 00:42:00,
2013-03-22 20:52:00,33.0,16.0,-100.00,NE,35,5.0,8.0,48,0.00,,,-99.99,,2013-03-23 00:52:00,
2013-03-22 21:03:00,33.0,16.0,-100.00,NE,35,5.0,8.0,48,0.00,,,-99.99,,2013-03-23 01:03:00,
2013-03-22 21:12:00,33.0,15.0,-100.00,NE,40,4.0,7.0,48,0.00,,,-99.99,,2013-03-23 01:12:00,
2013-03-22 21:22:00,33.0,15.0,-100.00,NE,40,2.0,6.0,48,0.00,,,-99.99,,2013-03-23 01:22:00,
2013-03-22 21:32:00,33.0,15.0,-100.00,NE,40,2.0,6.0,48,0.00,,,-99.99,,2013-03-23 01:32:00,
2013-03-22 21:42:00,33.0,16.0,-100.00,NE,40,3.0,6.0,49,0.00,,,-99.99,,2013-03-23 01:42:00,
2013-03-22 21:52:00,33.0,15.0,-100.00,East,85,2.0,4.0,49,0.00,,,-99.99,,2013-03-23 01:52:00,
2013-03-22 22:02:00,33.0,15.0,-100.00,East,85,2.0,4.0,49,0.00,,,-99.99,,2013-03-23 02:02:00,
2013-03-22 22:12:00,32.0,16.0,-100.00,NNE,15,2.0,6.0,50,0.00,,,-99.99,,2013-03-23 02:12:00,
2013-03-22 22:22:00,32.0,16.0,-100.00,NNE,15,2.0,6.0,50,0.00,,,-99.99,,2013-03-23 02:22:00,
2013-03-22 22:32:00,32.0,16.0,-100.00,NNE,15,1.0,4.0,51,0.00,,,-99.99,,2013-03-23 02:32:00,
2013-03-22 22:42:00,32.0,16.0,-100.00,ENE,60,3.0,6.0,51,0.00,,,-99.99,,2013-03-23 02:42:00,
2013-03-22 22:52:00,32.0,16.0,-100.00,ENE,60,3.0,6.0,51,0.00,,,-99.99,,2013-03-23 02:52:00,
2013-03-22 23:02:00,32.0,15.0,-100.00,East,100,1.0,3.0,51,0.00,,,-99.99,,2013-03-23 03:02:00,
2013-03-22 23:12:00,31.0,16.0,-100.00,NNE,20,2.0,4.0,53,0.00,,,-99.99,,2013-03-23 03:12:00,
2013-03-22 23:22:00,31.0,16.0,-100.00,NNE,20,2.0,4.0,53,0.00,,,-99.99,,2013-03-23 03:22:00,
2013-03-22 23:33:00,31.0,16.0,-100.00,North,5,1.0,5.0,54,0.00,,,-99.99,,2013-03-23 03:33:00,
2013-03-22 23:43:00,29.0,15.0,-100.00,South,190,1.0,1.0,56,0.00,,,-99.99,,2013-03-23 03:43:00,
2013-03-22 23:53:00,29.0,15.0,-100.00,South,190,1.0,1.0,56,0.00,,,-99.99,,2013-03-23 03:53:00,